Location: Mascot Post Office (historical)
(40.2645°N, 99.5462°W)
Time: 02:11:28
(UTC+00:00)

Cosmos 2360 - Pass Details

Date: 14 July 2020
Orbit: 844 x 858 km, 70.8° (Epoch: 14 August)

Event Time Altitude Azimuth Distance (km) Brightness Sun altitude
Rises 09:24:22 0° 333° (NNW) 3,439 7.7 -17.8°
Reaches altitude 10° 09:26:50 10° 331° (NNW) 2,499 6.9 -17.5°
Maximum altitude 09:32:31 65° 250° (WSW) 938 4.2 -16.8°
Drops below altitude 10° 09:38:10 10° 170° (S) 2,481 6.3 -16.1°
Enters shadow 09:38:44 - 169° (S) 2,693 6.5 -16.0°
